When you browse on this site, cookies collect data to enhance your experience and personalize the content and advertising you see.
Visit our Privacy Policy to learn more. By continuing to use the site, you agree to this use of cookies and data.
  • In United Kingdom
  • List of Countries
  • For 7 days
  • Water Temperature
  • Satellite Maps
  • Weather Map
  • Weather Widgets
  • user-avatar
    Login

    Hourly Weather Midlothian

    Today, 17 June, Monday

    Time Temperature Precipitation Wind Pressure Humidity
    00:00 +10°C° 0.5 mm 4 mps 732 mmHg 95%
    01:00 +8°C° 0 mm 4 mps 732 mmHg 94%
    02:00 +8°C° 0 mm 4 mps 732 mmHg 94%
    03:00 +7°C° 0 mm 4 mps 732 mmHg 93%
    04:00 +8°C° 0 mm 4 mps 732 mmHg 92%
    05:00 +8°C° 0 mm 5 mps 732 mmHg 92%
    06:00 +9°C° 0 mm 5 mps 732 mmHg 91%
    07:00 +10°C° 0 mm 5 mps 733 mmHg 85%
    08:00 +11°C° 0 mm 6 mps 733 mmHg 79%
    09:00 +12°C° 0 mm 7 mps 733 mmHg 72%
    10:00 +14°C° 0.1 mm 7 mps 733 mmHg 70%
    11:00 +14°C° 0.1 mm 7 mps 733 mmHg 68%
    12:00 +15°C° 0.1 mm 8 mps 733 mmHg 66%
    13:00 +15°C° 0.1 mm 8 mps 733 mmHg 67%
    14:00 +15°C° 0.1 mm 8 mps 733 mmHg 68%
    15:00 +15°C° 0.1 mm 9 mps 733 mmHg 68%
    16:00 +13°C° 0.1 mm 8 mps 733 mmHg 71%
    17:00 +13°C° 0.1 mm 8 mps 733 mmHg 75%
    18:00 +12°C° 0.1 mm 7 mps 733 mmHg 78%
    19:00 +11°C° 0 mm 6 mps 733 mmHg 82%
    20:00 +10°C° 0 mm 5 mps 733 mmHg 87%
    21:00 +10°C° 0 mm 4 mps 734 mmHg 91%
    22:00 +8°C° 0 mm 4 mps 734 mmHg 92%
    23:00 +9°C° 0 mm 3 mps 734 mmHg 93%

    Tomorrow, 18 June, Tuesday

    Time Temperature Precipitation Wind Pressure Humidity
    00:00 +8°C° 0 mm 3 mps 734 mmHg 94%
    01:00 +8°C° 0 mm 3 mps 734 mmHg 94%
    02:00 +8°C° 0 mm 3 mps 734 mmHg 94%
    03:00 +8°C° 0 mm 3 mps 734 mmHg 94%
    04:00 +8°C° 0 mm 4 mps 734 mmHg 91%
    05:00 +8°C° 0 mm 4 mps 734 mmHg 89%
    06:00 +9°C° 0 mm 5 mps 733 mmHg 87%
    07:00 +10°C° 0 mm 6 mps 734 mmHg 81%
    08:00 +11°C° 0 mm 6 mps 734 mmHg 74%
    09:00 +12°C° 0 mm 7 mps 734 mmHg 67%
    10:00 +12°C° 0 mm 7 mps 734 mmHg 69%
    11:00 +12°C° 0 mm 7 mps 734 mmHg 72%
    12:00 +13°C° 0 mm 6 mps 734 mmHg 74%
    13:00 +13°C° 0.1 mm 6 mps 734 mmHg 74%
    14:00 +14°C° 0.1 mm 6 mps 734 mmHg 74%
    15:00 +14°C° 0.1 mm 6 mps 734 mmHg 73%
    16:00 +14°C° 0.1 mm 5 mps 734 mmHg 77%
    17:00 +13°C° 0.1 mm 5 mps 734 mmHg 80%
    18:00 +13°C° 0.1 mm 4 mps 734 mmHg 83%
    19:00 +12°C° 0 mm 4 mps 734 mmHg 86%
    20:00 +11°C° 0 mm 3 mps 734 mmHg 88%
    21:00 +10°C° 0 mm 2 mps 734 mmHg 91%
    22:00 +10°C° 0 mm 2 mps 734 mmHg 91%
    23:00 +9°C° 0 mm 2 mps 734 mmHg 92%

    Day after tomorrow, 19 June, Wednesday

    Time Temperature Precipitation Wind Pressure Humidity
    00:00 +9°C° 0 mm 2 mps 733 mmHg 92%
    01:00 +8°C° 0 mm 2 mps 733 mmHg 92%
    02:00 +9°C° 0 mm 1 mps 733 mmHg 92%
    03:00 +8°C° 0 mm 1 mps 733 mmHg 92%
    04:00 +9°C° 0 mm 1 mps 733 mmHg 90%
    05:00 +10°C° 0 mm 1 mps 732 mmHg 89%
    06:00 +11°C° 0 mm 1 mps 732 mmHg 87%
    07:00 +12°C° 0 mm 1 mps 732 mmHg 82%
    08:00 +14°C° 0 mm 1 mps 732 mmHg 77%
    09:00 +15°C° 0 mm 1 mps 732 mmHg 73%
    10:00 +15°C° 0.3 mm 1 mps 732 mmHg 73%
    11:00 +15°C° 0.3 mm 1 mps 732 mmHg 74%
    12:00 +15°C° 0.3 mm 2 mps 731 mmHg 75%
    13:00 +15°C° 0.5 mm 2 mps 731 mmHg 77%
    14:00 +15°C° 0.5 mm 2 mps 731 mmHg 80%
    15:00 +15°C° 0.5 mm 2 mps 730 mmHg 83%
    16:00 +15°C° 0.2 mm 2 mps 730 mmHg 82%
    17:00 +15°C° 0.2 mm 2 mps 730 mmHg 80%
    18:00 +14°C° 0.2 mm 3 mps 730 mmHg 79%
    19:00 +13°C° 0 mm 3 mps 730 mmHg 82%
    20:00 +11°C° 0 mm 3 mps 730 mmHg 84%
    21:00 +10°C° 0 mm 4 mps 730 mmHg 87%
    22:00 +8°C° 0 mm 4 mps 730 mmHg 88%
    23:00 +7°C° 0 mm 4 mps 730 mmHg 88%

    20 June, Thursday

    Time Temperature Precipitation Wind Pressure Humidity
    00:00 +7°C° 0 mm 4 mps 729 mmHg 89%
    01:00 +6°C° 0 mm 4 mps 730 mmHg 89%
    02:00 +6°C° 0 mm 4 mps 730 mmHg 89%
    03:00 +6°C° 0 mm 4 mps 730 mmHg 89%
    04:00 +8°C° 0 mm 3 mps 730 mmHg 88%
    05:00 +8°C° 0 mm 3 mps 730 mmHg 87%
    06:00 +9°C° 0 mm 3 mps 730 mmHg 86%
    07:00 +10°C° 0 mm 4 mps 730 mmHg 79%
    08:00 +10°C° 0 mm 5 mps 730 mmHg 73%
    09:00 +11°C° 0 mm 6 mps 731 mmHg 67%
    10:00 +13°C° 0 mm 6 mps 731 mmHg 65%
    11:00 +13°C° 0 mm 6 mps 731 mmHg 63%
    12:00 +14°C° 0 mm 6 mps 731 mmHg 61%
    13:00 +14°C° 0.2 mm 6 mps 731 mmHg 64%
    14:00 +14°C° 0.2 mm 6 mps 731 mmHg 67%
    15:00 +14°C° 0.2 mm 6 mps 731 mmHg 70%
    16:00 +13°C° 0.5 mm 5 mps 731 mmHg 75%
    17:00 +12°C° 0.5 mm 5 mps 731 mmHg 80%
    18:00 +12°C° 0.5 mm 5 mps 731 mmHg 85%
    19:00 +10°C° 0.1 mm 5 mps 731 mmHg 87%
    20:00 +10°C° 0.1 mm 4 mps 731 mmHg 90%
    21:00 +7°C° 0.1 mm 4 mps 731 mmHg 92%
    22:00 +7°C° 0 mm 4 mps 732 mmHg 92%
    23:00 +7°C° 0 mm 3 mps 732 mmHg 92%

    21 June, Friday

    Time Temperature Precipitation Wind Pressure Humidity
    00:00 +7°C° 0 mm 3 mps 732 mmHg 93%
    01:00 +6°C° 0 mm 4 mps 732 mmHg 93%
    02:00 +5°C° 0 mm 4 mps 732 mmHg 94%
    03:00 +5°C° 0 mm 4 mps 732 mmHg 95%
    04:00 +6°C° 0 mm 4 mps 733 mmHg 93%
    05:00 +6°C° 0 mm 5 mps 733 mmHg 92%
    06:00 +7°C° 0 mm 5 mps 733 mmHg 91%
    07:00 +8°C° 0 mm 5 mps 734 mmHg 87%
    08:00 +9°C° 0 mm 5 mps 734 mmHg 83%
    09:00 +10°C° 0 mm 5 mps 734 mmHg 78%
    10:00 +10°C° 0.2 mm 5 mps 735 mmHg 74%
    11:00 +11°C° 0.2 mm 6 mps 735 mmHg 69%
    12:00 +13°C° 0.2 mm 6 mps 735 mmHg 65%
    13:00 +13°C° 0 mm 6 mps 736 mmHg 63%
    14:00 +13°C° 0 mm 6 mps 736 mmHg 61%
    15:00 +13°C° 0 mm 6 mps 736 mmHg 60%
    16:00 +12°C° 0.1 mm 5 mps 737 mmHg 64%
    17:00 +12°C° 0.1 mm 4 mps 737 mmHg 67%
    18:00 +11°C° 0.1 mm 3 mps 737 mmHg 71%
    19:00 +10°C° 0 mm 3 mps 738 mmHg 76%
    20:00 +8°C° 0 mm 2 mps 738 mmHg 81%
    21:00 +7°C° 0 mm 2 mps 739 mmHg 85%
    22:00 +6°C° 0 mm 2 mps 739 mmHg 86%
    23:00 +5°C° 0 mm 2 mps 739 mmHg 87%

    22 June, Saturday

    Time Temperature Precipitation Wind Pressure Humidity
    00:00 +5°C° 0 mm 2 mps 739 mmHg 87%
    01:00 +4°C° 0 mm 2 mps 739 mmHg 87%
    02:00 +4°C° 0 mm 2 mps 739 mmHg 87%
    03:00 +4°C° 0 mm 2 mps 739 mmHg 87%
    04:00 +5°C° 0 mm 2 mps 740 mmHg 84%
    05:00 +6°C° 0 mm 2 mps 740 mmHg 81%
    06:00 +8°C° 0 mm 1 mps 740 mmHg 79%
    07:00 +10°C° 0 mm 1 mps 740 mmHg 72%
    08:00 +11°C° 0 mm 1 mps 741 mmHg 66%
    09:00 +13°C° 0 mm 1 mps 741 mmHg 59%
    10:00 +14°C° 0 mm 1 mps 741 mmHg 57%
    11:00 +14°C° 0 mm 1 mps 741 mmHg 55%
    12:00 +15°C° 0 mm 1 mps 741 mmHg 53%
    13:00 +15°C° 0 mm 2 mps 741 mmHg 56%
    14:00 +15°C° 0 mm 2 mps 741 mmHg 59%
    15:00 +15°C° 0 mm 2 mps 741 mmHg 61%
    16:00 +15°C° 0.1 mm 2 mps 740 mmHg 66%
    17:00 +15°C° 0.1 mm 2 mps 740 mmHg 71%
    18:00 +14°C° 0.1 mm 2 mps 740 mmHg 75%
    19:00 +13°C° 0.1 mm 2 mps 740 mmHg 79%
    20:00 +12°C° 0.1 mm 2 mps 741 mmHg 83%
    21:00 +9°C° 0.1 mm 2 mps 741 mmHg 87%
    22:00 +9°C° 0 mm 2 mps 741 mmHg 88%
    23:00 +9°C° 0 mm 1 mps 741 mmHg 88%
    Show more